Location: ???????
(54.6339°N, 39.4245°E)
Time: 06:14:43
(UTC+00:00)

Cosmos 1758 - Pass Details

Date: 19 May 2025
Orbit: 491 x 512 km, 82.5° (Epoch: 15 June)

Event Time Altitude Azimuth Distance (km) Brightness Sun altitude
Rises 21:42:21 0° 350° (N) 2,645 8.3 -15.2°
Reaches altitude 10° 21:44:31 10° 353° (N) 1,753 7.2 -15.2°
Maximum altitude 21:48:21 65° 76° (ENE) 569 3.4 -15.1°
Enters shadow 21:50:32 24° 153° (SSE) 1,103 4.4 -15.1°
